[[{"header":{"parameterUnit":"m.s-1","parameterCategory":1,"la1":30.2991,"la2":30.254,"lo1":-89.0895,"lo2":-89.0444,"dy":0.0017,"dx":0.0017,"nx":28,"ny":28,"refTime":"2024-05-23T09:00:00:Z","depth":0,"parameterNumber":2,"parameterNumberName":"U-component_of_WINDS"},"data":[0,0,0,0,0,0,0,0,0,0,0,0,0,0,0,0,0,0,0,0,0,0,0,0,0,0,0,0,0,0,0,0,0,0,0,0,0,0,0,0,0,0,0,0,0,0,0,0,0,0,0,0,0,0,0,0,0,0,-0.6814,-0.6814,0,-0.6839,-0.6839,-0.6839,-0.6845,-0.6845,-0.6845,-0.6845,-0.6871,-0.6872,-0.6873,0,0,0,0,0,0,0,0,0,0,0,0,0,-0.6774,-0.6775,-0.6814,-0.6814,-0.6815,-0.6839,-0.6839,-0.6839,-0.6845,-0.6845,-0.6845,-0.6845,-0.6871,-0.6872,-0.6873,0,0,0,0,0,0,0,0,0,0,0,0,0,-0.6794,-0.6775,-0.6814,-0.682,-0.6821,-0.6839,-0.6839,-0.6839,-0.6845,-0.6845,-0.6845,-0.6845,-0.687,-0.6871,-0.6873,-0.6886,0,0,-0.6877,-0.6877,0,0,0,0,0,0,0,0,-0.6793,-0.6796,-0.6819,-0.682,-0.6821,-0.6839,-0.6835,-0.6855,-0.6845,-0.6836,-0.6845,-0.6844,-0.686,-0.6862,-0.6868,-0.6887,-0.6888,-0.6877,-0.6878,-0.6878,-0.6878,0,0,0,0,0,0,0,-0.6792,-0.6795,-0.6824,-0.682,-0.6821,-0.6823,-0.6825,-0.6838,-0.6849,-0.6837,-0.6837,-0.684,-0.6861,-0.6866,-0.6868,-0.6888,-0.6877,-0.6878,-0.6879,-0.6879,-0.6921,-0.6922,0,0,0,0,0,0,-0.6789,-0.6794,-0.6823,-0.6825,-0.6806,-0.6824,-0.6827,-0.6833,-0.6849,-0.6851,-0.684,-0.684,-0.6864,-0.6867,-0.6869,-0.6887,-0.6878,-0.6879,-0.688,-0.6921,-0.6922,-0.6922,0,0,0,0,0,0,-0.6788,-0.6792,-0.6822,-0.6809,-0.6813,-0.6825,-0.6832,-0.6834,-0.6839,-0.6852,-0.6854,-0.6844,-0.6864,-0.6867,-0.6882,-0.6888,-0.688,-0.6881,-0.6921,-0.6921,-0.6922,-0.6921,0,0,0,0,0,0,-0.6787,-0.6791,-0.6796,-0.6809,-0.6814,-0.6834,-0.6832,-0.6835,-0.6842,-0.6842,-0.6856,-0.6858,-0.6864,-0.688,-0.6883,-0.6889,-0.6882,-0.692,-0.6921,-0.6922,-0.692,-0.6921,-0.6922,0,0,0,0,0,-0.6785,-0.6794,-0.6796,-0.6799,-0.682,-0.6834,-0.6837,-0.6844,-0.6842,-0.6847,-0.6855,-0.6857,-0.6886,-0.6881,-0.6885,-0.6892,-0.692,-0.6921,-0.6922,-0.692,-0.6921,-0.6922,0,0,0,0,0,0,-0.6781,-0.6796,-0.6798,-0.6811,-0.6821,-0.6835,-0.6841,-0.6844,-0.6855,-0.6855,-0.6863,-0.6867,-0.6881,-0.6888,-0.6882,-0.6906,-0.6903,-0.6905,-0.6901,-0.6902,-0.6903,-0.6901,-0.6883,0,0,0,0,0,-0.6781,-0.6791,-0.6804,-0.6815,-0.682,-0.683,-0.6836,-0.6841,-0.6852,-0.6856,-0.6865,-0.6876,-0.6888,-0.6895,-0.6906,-0.6921,-0.6925,-0.6928,-0.6929,-0.6929,-0.6931,-0.6941,-0.6942,-0.6925,-0.6925,-0.6925,0,0,-0.6782,-0.6792,-0.6798,-0.6814,-0.6822,-0.6833,-0.6833,-0.6844,-0.6853,-0.6858,-0.6872,-0.6879,-0.6892,-0.6907,-0.6914,-0.6913,-0.6936,-0.693,-0.6931,-0.6932,-0.6942,-0.6943,-0.6945,-0.6925,-0.6925,-0.6925,0,0,-0.679,-0.6798,-0.6808,-0.6817,-0.683,-0.6836,-0.6839,-0.6852,-0.6858,-0.6872,-0.6877,-0.6887,-0.6907,-0.6916,-0.6923,-0.6936,-0.6939,-0.694,-0.6944,-0.6954,-0.6955,-0.6957,-0.6962,-0.6964,-0.6941,-0.6941,-0.6941,0,-0.679,-0.6806,-0.6813,-0.6824,-0.6832,-0.6837,-0.6849,-0.6857,-0.6872,-0.6878,-0.6877,-0.6903,-0.6911,-0.6929,-0.6933,-0.6938,-0.6942,-0.6938,-0.6954,-0.6956,-0.6957,-0.6963,-0.6965,-0.6941,-0.6941,-0.6941,-0.6941,0,-0.6806,-0.6817,-0.6824,-0.6839,-0.6848,-0.6859,-0.6869,-0.6876,-0.6881,-0.6888,-0.6904,-0.6915,-0.6929,-0.6934,-0.6938,-0.6953,-0.6952,-0.6953,-0.695,-0.6959,-0.6964,-0.6966,-0.6941,-0.6941,-0.6941,-0.6941,0,0,-0.681,-0.6831,-0.6833,-0.6841,-0.6856,-0.6865,-0.6877,-0.6891,-0.6899,-0.691,-0.6921,-0.6938,-0.6939,-0.6947,-0.6953,-0.6961,-0.6972,-0.696,-0.6961,-0.6963,-0.6991,-0.6992,-0.6994,-0.6974,-0.6975,-0.6975,-0.6991,0,-0.682,-0.6842,-0.6849,-0.6867,-0.6878,-0.6884,-0.6895,-0.6906,-0.6914,-0.6925,-0.6934,-0.6946,-0.6946,-0.6951,-0.696,-0.6969,-0.6978,-0.6968,-0.6986,-0.6986,-0.6983,-0.6997,-0.6996,-0.7011,-0.6993,-0.6993,-0.6993,0,-0.6835,-0.6847,-0.6866,-0.6881,-0.6886,-0.6895,-0.691,-0.692,-0.6933,-0.6938,-0.6949,-0.6954,-0.6968,-0.6965,-0.6985,-0.6978,-0.6986,-0.6992,-0.6992,-0.6995,-0.6991,-0.7,-0.7015,-0.7018,-0.6997,-0.6996,-0.6996,0,-0.6837,-0.6858,-0.6872,-0.6879,-0.6897,-0.6903,-0.6911,-0.6924,-0.6933,-0.6946,-0.6952,-0.6966,-0.6974,-0.6985,-0.6995,-0.6991,-0.7015,-0.7012,-0.702,-0.702,-0.7025,-0.7025,-0.7042,-0.7029,-0.7029,-0.7029,-0.7029,0,-0.6848,-0.686,-0.6874,-0.6883,-0.6897,-0.6906,-0.692,-0.6928,-0.694,-0.6951,-0.6957,-0.6968,-0.698,-0.6992,-0.7,-0.7016,-0.702,-0.7025,-0.7027,-0.7025,-0.7024,-0.703,-0.703,-0.7029,-0.7029,-0.7029,-0.7029,0,-0.6853,-0.6863,-0.6879,-0.6895,-0.69,-0.6909,-0.6924,-0.6933,-0.6941,-0.6956,-0.696,-0.6973,-0.6989,-0.6999,-0.7019,-0.7024,-0.7042,-0.7044,-0.7038,-0.7039,-0.7047,-0.7046,-0.707,-0.7074,-0.7057,-0.7057,-0.7057,0,-0.6859,-0.6868,-0.6886,-0.6894,-0.6902,-0.6915,-0.6924,-0.6934,-0.6943,-0.696,-0.6968,-0.6984,-0.6997,-0.7022,-0.7033,-0.7049,-0.7051,-0.7058,-0.7054,-0.7052,-0.7053,-0.7052,-0.7054,-0.7059,-0.7059,-0.7059,-0.706,0,-0.687,-0.6875,-0.6887,-0.6902,-0.6913,-0.6925,-0.6937,-0.6944,-0.6956,-0.6967,-0.6983,-0.6993,-0.7014,-0.703,-0.7047,-0.7056,-0.706,-0.7061,-0.7064,-0.7062,-0.7059,-0.7062,-0.7041,-0.706,-0.706,-0.706,-0.706,-0.706,-0.6876,-0.6885,-0.6899,-0.6914,-0.6924,-0.6936,-0.6946,-0.6957,-0.697,-0.6987,-0.6993,-0.701,-0.7025,-0.7048,-0.7057,-0.7071,-0.7071,-0.7075,-0.7076,-0.7077,-0.7078,-0.7056,-0.7074,-0.7074,-0.7074,-0.7074,-0.7074,0,-0.6888,-0.6897,-0.6911,-0.6928,-0.694,-0.6943,-0.6958,-0.6967,-0.6982,-0.6995,-0.7009,-0.7028,-0.7044,-0.7058,-0.7075,-0.7084,-0.7086,-0.7088,-0.7088,-0.709,-0.7076,-0.7073,-0.7086,-0.7086,-0.7086,-0.7086,-0.7086,-0.7086,-0.6895,-0.6911,-0.6918,-0.694,-0.695,-0.6967,-0.6975,-0.6986,-0.6997,-0.7018,-0.7032,-0.7041,-0.7055,-0.7073,-0.7089,-0.7093,-0.7099,-0.71,-0.7105,-0.7092,-0.7091,-0.7089,-0.7086,-0.7101,-0.7101,-0.7117,-0.7117,-0.7117]},{"header":{"parameterUnit":"m.s-1","parameterCategory":1,"la1":30.2991,"la2":30.254,"lo1":-89.0895,"lo2":-89.0444,"dy":0.0017,"dx":0.0017,"nx":28,"ny":28,"refTime":"2024-05-23T09:00:00:Z","depth":0,"parameterNumber":3,"parameterNumberName":"V-component_of_WINDS"},"data":[0,0,0,0,0,0,0,0,0,0,0,0,0,0,0,0,0,0,0,0,0,0,0,0,0,0,0,0,0,0,0,0,0,0,0,0,0,0,0,0,0,0,0,0,0,0,0,0,0,0,0,0,0,0,0,0,0,0,5.2083,5.2082,0,5.1991,5.199,5.1989,5.1875,5.1873,5.1871,5.187,5.1775,5.1774,5.1773,0,0,0,0,0,0,0,0,0,0,0,0,0,5.2159,5.2158,5.2083,5.2082,5.2081,5.1991,5.199,5.1988,5.1875,5.1873,5.1871,5.1869,5.1775,5.1774,5.1773,0,0,0,0,0,0,0,0,0,0,0,0,0,5.2103,5.2158,5.2083,5.2013,5.2006,5.1991,5.199,5.1988,5.1876,5.1873,5.187,5.1868,5.1775,5.1774,5.1773,5.1819,0,0,5.1769,5.1768,0,0,0,0,0,0,0,0,5.2106,5.21,5.2025,5.2018,5.201,5.1942,5.1982,5.1931,5.1876,5.1925,5.187,5.1867,5.1832,5.1826,5.1815,5.1814,5.181,5.1769,5.1768,5.1767,5.1767,0,0,0,0,0,0,0,5.211,5.2103,5.2046,5.2024,5.2015,5.1986,5.1975,5.1972,5.1895,5.1921,5.1912,5.1903,5.1828,5.1816,5.1812,5.1809,5.1769,5.1767,5.1767,5.1766,5.1839,5.1842,0,0,0,0,0,0,5.2124,5.2107,5.2049,5.2044,5.2052,5.1987,5.1975,5.1966,5.1895,5.1881,5.1905,5.1898,5.182,5.1813,5.1808,5.1855,5.1767,5.1766,5.1765,5.1836,5.184,5.1842,0,0,0,0,0,0,5.2127,5.212,5.2053,5.2073,5.2062,5.1989,5.198,5.1966,5.1954,5.1883,5.1869,5.1908,5.1817,5.181,5.1816,5.185,5.1765,5.1764,5.1833,5.1837,5.1841,5.1951,0,0,0,0,0,0,5.2129,5.2122,5.2139,5.2074,5.2062,5.2064,5.1982,5.1966,5.1952,5.1942,5.1882,5.1869,5.1815,5.1819,5.1815,5.1847,5.1763,5.183,5.1835,5.184,5.1944,5.1958,5.1971,0,0,0,0,0,5.2132,5.2174,5.214,5.2134,5.2081,5.2066,5.2059,5.1996,5.1956,5.1972,5.1926,5.1871,5.1848,5.1821,5.1815,5.1847,5.1827,5.1833,5.1839,5.1938,5.1956,5.197,0,0,0,0,0,0,5.2244,5.2164,5.2126,5.2148,5.2115,5.2047,5.2065,5.2017,5.1994,5.1985,5.1907,5.1895,5.191,5.188,5.1851,5.1887,5.1829,5.1835,5.1906,5.1922,5.1935,5.1941,5.1762,0,0,0,0,0,5.2271,5.2266,5.2196,5.2222,5.2207,5.214,5.213,5.2085,5.2047,5.2032,5.1987,5.1952,5.1936,5.1928,5.191,5.194,5.1924,5.1959,5.1973,5.1984,5.1989,5.2,5.2014,5.1862,5.1862,5.1862,0,0,5.2327,5.2283,5.2284,5.2243,5.2212,5.2207,5.2128,5.2127,5.2122,5.2032,5.2035,5.2001,5.1957,5.1975,5.198,5.1949,5.2027,5.1992,5.2001,5.1999,5.2008,5.2022,5.2035,5.1867,5.1866,5.1865,0,0,5.2425,5.2393,5.2409,5.238,5.2334,5.2288,5.2293,5.2233,5.2206,5.2208,5.214,5.2134,5.2109,5.208,5.2062,5.215,5.2098,5.2147,5.2215,5.2227,5.2239,5.2249,5.2279,5.229,5.2152,5.2152,5.2153,0,5.25,5.2491,5.2424,5.2426,5.241,5.2329,5.2345,5.232,5.227,5.226,5.2227,5.2194,5.2159,5.2168,5.2189,5.2178,5.2179,5.2152,5.2243,5.2253,5.2261,5.2288,5.23,5.2158,5.2158,5.2157,5.2157,0,5.2584,5.2579,5.2598,5.2552,5.2538,5.2548,5.2482,5.2475,5.2432,5.239,5.2392,5.2347,5.2318,5.2317,5.2275,5.232,5.2302,5.2258,5.2197,5.2283,5.2307,5.2317,5.2167,5.2165,5.2163,5.2162,0,0,5.2748,5.2666,5.2674,5.2652,5.2595,5.2589,5.2595,5.2567,5.2562,5.2531,5.2533,5.2514,5.2472,5.2452,5.2405,5.2416,5.2486,5.2369,5.2367,5.239,5.2531,5.2564,5.2577,5.2452,5.2454,5.2455,5.2534,0,5.2834,5.2839,5.278,5.28,5.2793,5.2717,5.2721,5.2687,5.2648,5.2636,5.2593,5.2581,5.2527,5.2514,5.2522,5.2476,5.2513,5.247,5.2451,5.2451,5.2462,5.259,5.2624,5.27,5.2543,5.2545,5.2546,0,5.2935,5.291,5.293,5.2872,5.2867,5.2872,5.284,5.2831,5.279,5.2761,5.2739,5.2686,5.2686,5.2631,5.263,5.2602,5.2591,5.2567,5.2569,5.2562,5.2502,5.2585,5.2723,5.2734,5.256,5.2559,5.2558,0,5.305,5.3021,5.3029,5.3013,5.2946,5.2951,5.2923,5.288,5.2866,5.2839,5.2829,5.2803,5.2788,5.2768,5.2709,5.2675,5.2714,5.2654,5.2688,5.269,5.2698,5.2698,5.2834,5.2695,5.2695,5.2695,5.2695,0,5.3151,5.3166,5.3079,5.3084,5.3098,5.303,5.3045,5.301,5.2972,5.2968,5.2901,5.2898,5.2821,5.2809,5.2763,5.2768,5.2762,5.2738,5.2725,5.2742,5.2745,5.2732,5.2724,5.2698,5.2697,5.2697,5.2696,0,5.328,5.3224,5.3227,5.3163,5.3148,5.3161,5.3106,5.3107,5.3065,5.306,5.3055,5.2989,5.2971,5.2911,5.2879,5.2848,5.2866,5.2843,5.288,5.2871,5.2908,5.2904,5.3039,5.3052,5.2908,5.2909,5.291,0,5.3347,5.3357,5.3295,5.3287,5.3262,5.3252,5.3237,5.3171,5.3159,5.3113,5.312,5.3097,5.3076,5.3052,5.3,5.2975,5.2949,5.2998,5.2944,5.2961,5.2947,5.2946,5.2946,5.3009,5.3011,5.3012,5.3013,0,5.3471,5.3443,5.3425,5.3398,5.3383,5.3359,5.333,5.3328,5.3254,5.3243,5.3225,5.3209,5.3176,5.3154,5.3121,5.3091,5.3039,5.3031,5.3037,5.3054,5.3074,5.3061,5.2909,5.3028,5.3026,5.3025,5.3024,5.3024,5.3569,5.3574,5.353,5.3513,5.3485,5.346,5.3457,5.3415,5.3399,5.3367,5.3329,5.3316,5.3274,5.3224,5.3198,5.3185,5.3157,5.3167,5.3169,5.3171,5.3179,5.3078,5.3179,5.3179,5.3178,5.3178,5.3178,0,5.3687,5.3656,5.3641,5.3603,5.359,5.3544,5.351,5.3501,5.349,5.3456,5.3436,5.3415,5.3393,5.334,5.3313,5.3314,5.3289,5.3308,5.3306,5.33,5.3207,5.3203,5.3329,5.3328,5.3328,5.3328,5.3328,5.3328,5.3747,5.3752,5.3718,5.3708,5.3676,5.3662,5.3647,5.3623,5.3595,5.3574,5.3556,5.3522,5.348,5.3449,5.3427,5.3412,5.3404,5.3431,5.3408,5.3321,5.3307,5.3293,5.3289,5.343,5.3431,5.3502,5.3502,5.3503]}]]